| time (UTC) | temp C | wind direction | speed KPH | gust KPH | rain 1hr cm | rain 24hr cm | rain mn cm | humidity % | barometer mb |
| 20260506124543 | 5 | 0 | 0.0 | 0.0 | 0.00 | 0.00 | 0.00 | 95 | 1019.2 |
| 20260506124020 | 5 | 0 | 0.0 | 0.0 | 0.00 | 0.00 | 0.00 | 95 | 1019.2 |
| 20260506123520 | 5 | 0 | 0.0 | 0.0 | 0.00 | 0.00 | 0.00 | 94 | 1019.2 |
| 20260506123041 | 5 | 0 | 0.0 | 0.0 | 0.00 | 0.00 | 0.00 | 95 | 1019.1 |
| 20260506122518 | 5 | 0 | 0.0 | 0.0 | 0.00 | 0.00 | 0.00 | 95 | 1019.0 |
| 20260506122018 | 5 | 0 | 0.0 | 0.0 | 0.00 | 0.00 | 0.00 | 95 | 1019.0 |
| 20260506121536 | 5 | 0 | 0.0 | 0.0 | 0.00 | 0.00 | 0.00 | 95 | 1019.0 |
| 20260506121021 | 5 | 0 | 0.0 | 0.0 | 0.00 | 0.00 | 0.00 | 94 | 1018.8 |
| 20260506120519 | 5 | 0 | 0.0 | 0.0 | 0.00 | 0.00 | 0.00 | 95 | 1018.8 |
| 20260506120052 | 5 | 0 | 0.0 | 0.0 | 0.00 | 0.00 | 0.00 | 94 | 1018.7 |
| 20260506115520 | 5 | 0 | 0.0 | 0.0 | 0.00 | 0.00 | 0.00 | 94 | 1018.7 |
| 20260506115017 | 5 | 0 | 0.0 | 0.0 | 0.00 | 0.00 | 0.00 | 94 | 1018.6 |
| 20260506114541 | 5 | 0 | 0.0 | 0.0 | 0.00 | 0.00 | 0.00 | 94 | 1018.5 |
| 20260506114019 | 6 | 0 | 0.0 | 0.0 | 0.00 | 0.00 | 0.00 | 94 | 1018.5 |
| 20260506113518 | 6 | 0 | 0.0 | 0.0 | 0.00 | 0.00 | 0.00 | 94 | 1018.6 |
| 20260506113041 | 5 | 0 | 0.0 | 0.0 | 0.00 | 0.00 | 0.00 | 94 | 1018.6 |
| 20260506112520 | 6 | 0 | 0.0 | 0.0 | 0.00 | 0.00 | 0.00 | 94 | 1018.6 |
| 20260506112019 | 6 | 0 | 0.0 | 0.0 | 0.00 | 0.00 | 0.00 | 94 | 1018.7 |
| 20260506111545 | 6 | 0 | 0.0 | 0.0 | 0.00 | 0.00 | 0.00 | 94 | 1018.6 |
| 20260506111019 | 6 | 0 | 0.0 | 0.0 | 0.00 | 0.00 | 0.00 | 94 | 1018.7 |
| 20260506110519 | 6 | 0 | 0.0 | 0.0 | 0.00 | 0.00 | 0.00 | 94 | 1018.6 |
| 20260506110035 | 6 | 0 | 0.0 | 0.0 | 0.00 | 0.00 | 0.00 | 95 | 1018.6 |
| 20260506105522 | 6 | 0 | 0.0 | 0.0 | 0.00 | 0.00 | 0.00 | 94 | 1018.7 |
| 20260506105017 | 6 | 0 | 0.0 | 0.0 | 0.00 | 0.00 | 0.00 | 94 | 1018.6 |
| 20260506104545 | 6 | 0 | 0.0 | 0.0 | 0.00 | 0.00 | 0.00 | 94 | 1018.6 |
| 20260506104024 | 6 | 0 | 0.0 | 0.0 | 0.00 | 0.00 | 0.00 | 94 | 1018.6 |
| 20260506103522 | 6 | 0 | 0.0 | 0.0 | 0.00 | 0.00 | 0.00 | 94 | 1018.5 |
| 20260506103046 | 6 | 0 | 0.0 | 0.0 | 0.00 | 0.00 | 0.00 | 94 | 1018.5 |
| 20260506102522 | 6 | 0 | 0.0 | 0.0 | 0.00 | 0.00 | 0.00 | 94 | 1018.6 |
| 20260506102021 | 6 | 0 | 0.0 | 0.0 | 0.00 | 0.00 | 0.00 | 94 | 1018.6 |
| 20260506101541 | 6 | 0 | 0.0 | 0.0 | 0.00 | 0.00 | 0.00 | 93 | 1018.6 |
| 20260506101018 | 7 | 0 | 0.0 | 0.0 | 0.00 | 0.00 | 0.00 | 94 | 1018.6 |
| 20260506100520 | 6 | 0 | 0.0 | 0.0 | 0.00 | 0.00 | 0.00 | 94 | 1018.6 |
| 20260506100049 | 6 | 0 | 0.0 | 0.0 | 0.00 | 0.00 | 0.00 | 94 | 1018.6 |
| 20260506095519 | 6 | 0 | 0.0 | 0.0 | 0.00 | 0.00 | 0.00 | 94 | 1018.6 |
| 20260506095020 | 6 | 0 | 0.0 | 0.0 | 0.00 | 0.00 | 0.00 | 94 | 1018.6 |
| 20260506094540 | 6 | 0 | 0.0 | 0.0 | 0.00 | 0.00 | 0.00 | 94 | 1018.6 |
| 20260506094018 | 6 | 0 | 0.0 | 0.0 | 0.00 | 0.00 | 0.00 | 94 | 1018.6 |
| 20260506093521 | 6 | 0 | 0.0 | 0.0 | 0.00 | 0.00 | 0.00 | 93 | 1018.6 |
| 20260506093036 | 7 | 0 | 0.0 | 0.0 | 0.00 | 0.00 | 0.00 | 94 | 1018.5 |
| 20260506092521 | 7 | 0 | 0.0 | 0.0 | 0.00 | 0.00 | 0.00 | 94 | 1018.5 |
| 20260506092019 | 7 | 0 | 0.0 | 0.0 | 0.00 | 0.00 | 0.00 | 94 | 1018.4 |
| 20260506091541 | 6 | 0 | 0.0 | 0.0 | 0.00 | 0.00 | 0.00 | 93 | 1018.4 |
| 20260506091021 | 7 | 0 | 0.0 | 0.0 | 0.00 | 0.00 | 0.00 | 93 | 1018.4 |
| 20260506090520 | 7 | 0 | 0.0 | 0.0 | 0.00 | 0.00 | 0.00 | 94 | 1018.4 |
| 20260506090042 | 7 | 0 | 0.0 | 0.0 | 0.00 | 0.00 | 0.00 | 93 | 1018.5 |
| 20260506085520 | 7 | 0 | 0.0 | 0.0 | 0.00 | 0.00 | 0.00 | 93 | 1018.5 |
| 20260506085020 | 7 | 0 | 0.0 | 0.0 | 0.00 | 0.00 | 0.00 | 93 | 1018.5 |
| 20260506084612 | 7 | 0 | 0.0 | 0.0 | 0.00 | 0.00 | 0.00 | 93 | 1018.4 |
| 20260506084020 | 7 | 0 | 0.0 | 0.0 | 0.00 | 0.00 | 0.00 | 93 | 1018.4 |
| 20260506083519 | 7 | 0 | 0.0 | 0.0 | 0.00 | 0.00 | 0.00 | 93 | 1018.4 |
| 20260506083041 | 7 | 0 | 0.0 | 0.0 | 0.00 | 0.00 | 0.00 | 93 | 1018.4 |
| 20260506082519 | 7 | 0 | 0.0 | 1.6 | 0.00 | 0.00 | 0.00 | 93 | 1018.4 |
| 20260506082019 | 7 | 0 | 0.0 | 1.6 | 0.00 | 0.00 | 0.00 | 93 | 1018.5 |
| 20260506081549 | 7 | 0 | 0.0 | 1.6 | 0.00 | 0.00 | 0.00 | 93 | 1018.5 |
| 20260506081018 | 7 | 0 | 0.0 | 1.6 | 0.00 | 0.00 | 0.00 | 93 | 1018.4 |
| 20260506080518 | 7 | 0 | 0.0 | 3.2 | 0.00 | 0.00 | 0.00 | 93 | 1018.4 |
| 20260506073519 | 8 | 0 | 0.0 | 3.2 | 0.00 | 0.00 | 0.00 | 92 | 1018.2 |
| 20260506073034 | 8 | 0 | 0.0 | 3.2 | 0.00 | 0.00 | 0.00 | 92 | 1018.2 |
| 20260506072520 | 8 | 0 | 0.0 | 3.2 | 0.00 | 0.00 | 0.00 | 93 | 1018.2 |
| 20260506072019 | 7 | 302 | 0.0 | 4.8 | 0.00 | 0.00 | 0.00 | 92 | 1018.1 |
| 20260506071541 | 7 | 0 | 1.6 | 4.8 | 0.00 | 0.00 | 0.00 | 91 | 1018.0 |
| 20260506071020 | 8 | 0 | 0.0 | 0.0 | 0.00 | 0.00 | 0.00 | 92 | 1018.0 |
| 20260506070520 | 8 | 0 | 0.0 | 0.0 | 0.00 | 0.00 | 0.00 | 92 | 1017.9 |
| 20260506062019 | 9 | 321 | 0.0 | 3.2 | 0.00 | 0.00 | 0.00 | 91 | 1017.4 |
| 20260506061544 | 9 | 281 | 0.0 | 3.2 | 0.00 | 0.00 | 0.00 | 90 | 1017.4 |
| 20260506061022 | 9 | 0 | 0.0 | 3.2 | 0.00 | 0.00 | 0.00 | 90 | 1017.3 |
| 20260506060521 | 9 | 0 | 0.0 | 6.4 | 0.00 | 0.00 | 0.00 | 90 | 1017.3 |
| 20260506051018 | 10 | 0 | 0.0 | 1.6 | 0.00 | 0.00 | 0.00 | 89 | 1016.9 |
| 20260506050518 | 10 | 0 | 0.0 | 4.8 | 0.00 | 0.00 | 0.00 | 88 | 1016.9 |
| 20260506045019 | 10 | 0 | 0.0 | 3.2 | 0.00 | 0.00 | 0.00 | 86 | 1016.6 |
| 20260506044540 | 11 | 0 | 0.0 | 3.2 | 0.00 | 0.00 | 0.00 | 85 | 1016.7 |
| 20260506044019 | 11 | 304 | 0.0 | 4.8 | 0.00 | 0.00 | 0.00 | 86 | 1016.6 |
| 20260506043518 | 11 | 0 | 0.0 | 4.8 | 0.00 | 0.00 | 0.00 | 85 | 1016.5 |
| 20260506043044 | 11 | 277 | 1.6 | 4.8 | 0.00 | 0.00 | 0.00 | 86 | 1016.5 |
| 20260506042521 | 11 | 277 | 1.6 | 4.8 | 0.00 | 0.00 | 0.00 | 84 | 1016.4 |
| 20260506042021 | 11 | 0 | 0.0 | 1.6 | 0.00 | 0.00 | 0.00 | 86 | 1016.3 |
| 20260506041535 | 11 | 0 | 0.0 | 0.0 | 0.00 | 0.00 | 0.00 | 85 | 1016.3 |
| 20260506041020 | 11 | 0 | 0.0 | 1.6 | 0.00 | 0.00 | 0.00 | 85 | 1016.2 |
| 20260506040518 | 11 | 0 | 0.0 | 1.6 | 0.00 | 0.00 | 0.00 | 84 | 1016.2 |
| 20260506040046 | 11 | 277 | 0.0 | 1.6 | 0.00 | 0.00 | 0.00 | 84 | 1016.1 |
| 20260506035518 | 11 | 0 | 0.0 | 1.6 | 0.00 | 0.00 | 0.00 | 83 | 1016.1 |
| 20260506035019 | 11 | 0 | 0.0 | 1.6 | 0.00 | 0.00 | 0.00 | 83 | 1016.0 |
| 20260506034541 | 11 | 0 | 0.0 | 1.6 | 0.00 | 0.00 | 0.00 | 82 | 1015.9 |
| 20260506034019 | 12 | 0 | 0.0 | 6.4 | 0.00 | 0.00 | 0.00 | 82 | 1015.8 |
| 20260506033521 | 12 | 0 | 1.6 | 8.0 | 0.00 | 0.00 | 0.00 | 81 | 1015.7 |
| 20260506033040 | 12 | 277 | 3.2 | 8.0 | 0.00 | 0.00 | 0.00 | 81 | 1015.7 |
| 20260506032517 | 12 | 228 | 3.2 | 8.0 | 0.00 | 0.00 | 0.00 | 81 | 1015.7 |
| 20260506032019 | 12 | 0 | 0.0 | 9.7 | 0.00 | 0.00 | 0.00 | 81 | 1015.5 |
| 20260506031542 | 12 | 273 | 1.6 | 9.7 | 0.00 | 0.00 | 0.00 | 80 | 1015.4 |
| 20260506031017 | 12 | 272 | 3.2 | 9.7 | 0.00 | 0.00 | 0.00 | 80 | 1015.2 |
| 20260506030521 | 12 | 273 | 3.2 | 9.7 | 0.00 | 0.00 | 0.00 | 79 | 1015.1 |
| 20260506030036 | 13 | 254 | 3.2 | 9.7 | 0.00 | 0.00 | 0.00 | 78 | 1015.0 |
| 20260506025520 | 13 | 229 | 4.8 | 14.5 | 0.00 | 0.00 | 0.00 | 77 | 1014.9 |
| 20260506025021 | 13 | 272 | 4.8 | 14.5 | 0.00 | 0.00 | 0.00 | 76 | 1014.8 |
| 20260506024537 | 13 | 256 | 8.0 | 14.5 | 0.00 | 0.00 | 0.00 | 75 | 1014.8 |
| 20260506024018 | 13 | 271 | 6.4 | 14.5 | 0.00 | 0.00 | 0.00 | 73 | 1014.7 |
| 20260506023520 | 14 | 279 | 6.4 | 12.9 | 0.00 | 0.00 | 0.00 | 72 | 1014.7 |
| 20260506023100 | 14 | 270 | 6.4 | 16.1 | 0.00 | 0.00 | 0.00 | 71 | 1014.7 |
| 20260506022519 | 15 | 234 | 8.0 | 16.1 | 0.00 | 0.00 | 0.00 | 70 | 1014.7 |
| 20260506022026 | 15 | 240 | 6.4 | 14.5 | 0.00 | 0.00 | 0.00 | 69 | 1014.6 |
| 20260506021601 | 15 | 254 | 8.0 | 17.7 | 0.00 | 0.00 | 0.00 | 69 | 1014.5 |
| 20260506021023 | 15 | 277 | 6.4 | 17.7 | 0.00 | 0.00 | 0.00 | 68 | 1014.5 |
| 20260506020517 | 15 | 270 | 8.0 | 14.5 | 0.00 | 0.00 | 0.00 | 69 | 1014.4 |
| 20260506020034 | 15 | 260 | 6.4 | 17.7 | 0.00 | 0.00 | 0.00 | 69 | 1014.4 |
| 20260506015523 | 15 | 264 | 8.0 | 17.7 | 0.00 | 0.00 | 0.00 | 69 | 1014.4 |
| 20260506015018 | 15 | 215 | 9.7 | 20.9 | 0.00 | 0.00 | 0.00 | 68 | 1014.5 |
| 20260506014541 | 16 | 252 | 11.3 | 20.9 | 0.00 | 0.00 | 0.00 | 68 | 1014.5 |
| 20260506014020 | 16 | 261 | 8.0 | 24.1 | 0.00 | 0.00 | 0.00 | 69 | 1014.5 |
| 20260506013520 | 16 | 257 | 9.7 | 24.1 | 0.00 | 0.00 | 0.00 | 70 | 1014.4 |
| 20260506013044 | 16 | 217 | 9.7 | 20.9 | 0.00 | 0.00 | 0.00 | 69 | 1014.5 |
| 20260506012519 | 16 | 281 | 8.0 | 20.9 | 0.00 | 0.00 | 0.00 | 69 | 1014.4 |
| 20260506012020 | 16 | 227 | 11.3 | 20.9 | 0.00 | 0.00 | 0.00 | 68 | 1014.5 |
| 20260506011537 | 16 | 236 | 9.7 | 19.3 | 0.00 | 0.00 | 0.00 | 69 | 1014.4 |
| 20260506011021 | 16 | 242 | 8.0 | 17.7 | 0.00 | 0.00 | 0.00 | 68 | 1014.5 |
| 20260506010519 | 16 | 256 | 9.7 | 20.9 | 0.00 | 0.00 | 0.00 | 68 | 1014.5 |
| 20260506010036 | 16 | 245 | 9.7 | 20.9 | 0.00 | 0.00 | 0.00 | 69 | 1014.5 |
| 20260506005521 | 16 | 227 | 9.7 | 19.3 | 0.00 | 0.00 | 0.00 | 68 | 1014.4 |
| 20260506005025 | 16 | 275 | 9.7 | 19.3 | 0.00 | 0.00 | 0.00 | 67 | 1014.5 |
| 20260506004535 | 16 | 259 | 8.0 | 20.9 | 0.00 | 0.00 | 0.00 | 68 | 1014.5 |
| 20260506004021 | 16 | 220 | 11.3 | 20.9 | 0.00 | 0.00 | 0.00 | 67 | 1014.4 |
| 20260506003520 | 16 | 241 | 11.3 | 22.5 | 0.00 | 0.00 | 0.00 | 67 | 1014.4 |
| 20260506003041 | 16 | 265 | 9.7 | 22.5 | 0.00 | 0.00 | 0.00 | 68 | 1014.3 |
| 20260506002520 | 16 | 236 | 11.3 | 22.5 | 0.00 | 0.00 | 0.00 | 67 | 1014.4 |
| 20260506002024 | 16 | 259 | 11.3 | 20.9 | 0.00 | 0.00 | 0.00 | 67 | 1014.4 |
| 20260506001541 | 16 | 229 | 8.0 | 19.3 | 0.00 | 0.00 | 0.00 | 68 | 1014.4 |
| 20260506001020 | 16 | 270 | 8.0 | 20.9 | 0.00 | 0.00 | 0.00 | 67 | 1014.3 |
| 20260506000523 | 16 | 212 | 11.3 | 20.9 | 0.00 | 0.00 | 0.00 | 68 | 1014.3 |
| 20260506000040 | 17 | 260 | 9.7 | 20.9 | 0.00 | 0.00 | 0.00 | 67 | 1014.3 |
| 20260505235523 | 17 | 252 | 9.7 | 19.3 | 0.00 | 0.00 | 0.00 | 66 | 1014.3 |
| 20260505235023 | 17 | 240 | 8.0 | 20.9 | 0.00 | 0.00 | 0.00 | 67 | 1014.2 |
| 20260505234536 | 17 | 274 | 9.7 | 20.9 | 0.00 | 0.00 | 0.00 | 66 | 1014.1 |
| 20260505234022 | 17 | 227 | 9.7 | 19.3 | 0.00 | 0.00 | 0.00 | 65 | 1014.2 |
| 20260505233523 | 17 | 265 | 9.7 | 19.3 | 0.00 | 0.00 | 0.00 | 63 | 1014.2 |
| 20260505233040 | 17 | 217 | 8.0 | 19.3 | 0.00 | 0.00 | 0.00 | 64 | 1014.2 |
| 20260505232522 | 18 | 222 | 4.8 | 24.1 | 0.00 | 0.00 | 0.00 | 62 | 1014.2 |
| 20260505232026 | 18 | 244 | 9.7 | 24.1 | 0.00 | 0.00 | 0.00 | 62 | 1014.3 |
| 20260505231556 | 18 | 215 | 8.0 | 20.9 | 0.00 | 0.00 | 0.00 | 62 | 1014.2 |
| 20260505231025 | 18 | 163 | 9.7 | 16.1 | 0.00 | 0.00 | 0.00 | 60 | 1014.2 |
| 20260505230524 | 18 | 271 | 4.8 | 14.5 | 0.00 | 0.00 | 0.00 | 62 | 1014.2 |
| 20260505230041 | 18 | 272 | 6.4 | 14.5 | 0.00 | 0.00 | 0.00 | 61 | 1014.2 |
| 20260505225522 | 17 | 238 | 4.8 | 12.9 | 0.00 | 0.00 | 0.00 | 62 | 1014.3 |
| 20260505225022 | 17 | 209 | 4.8 | 19.3 | 0.00 | 0.00 | 0.00 | 64 | 1014.4 |
| 20260505224543 | 18 | 236 | 11.3 | 20.9 | 0.00 | 0.00 | 0.00 | 62 | 1014.5 |
| 20260505224020 | 18 | 185 | 9.7 | 20.9 | 0.00 | 0.00 | 0.00 | 65 | 1014.4 |
| 20260505223520 | 17 | 192 | 6.4 | 16.1 | 0.00 | 0.00 | 0.00 | 64 | 1014.5 |
| 20260505223044 | 17 | 240 | 8.0 | 16.1 | 0.00 | 0.00 | 0.00 | 64 | 1014.6 |
| 20260505222521 | 17 | 213 | 8.0 | 16.1 | 0.00 | 0.00 | 0.00 | 65 | 1014.6 |
| 20260505222025 | 17 | 217 | 9.7 | 16.1 | 0.00 | 0.00 | 0.00 | 65 | 1014.7 |
| 20260505221542 | 17 | 230 | 8.0 | 16.1 | 0.00 | 0.00 | 0.00 | 62 | 1014.7 |
| 20260505221022 | 17 | 254 | 8.0 | 16.1 | 0.00 | 0.00 | 0.00 | 62 | 1014.7 |
| 20260505220526 | 17 | 222 | 6.4 | 16.1 | 0.00 | 0.00 | 0.00 | 62 | 1014.9 |
| 20260505220042 | 17 | 272 | 4.8 | 16.1 | 0.00 | 0.00 | 0.00 | 64 | 1014.8 |
| 20260505215523 | 17 | 196 | 4.8 | 16.1 | 0.00 | 0.00 | 0.00 | 63 | 1014.8 |
| 20260505215020 | 17 | 212 | 6.4 | 16.1 | 0.00 | 0.00 | 0.00 | 63 | 1014.9 |
| 20260505214555 | 17 | 246 | 6.4 | 17.7 | 0.00 | 0.00 | 0.00 | 61 | 1015.0 |
| 20260505214021 | 17 | 278 | 6.4 | 19.3 | 0.00 | 0.00 | 0.00 | 63 | 1015.0 |
| 20260505213521 | 17 | 274 | 8.0 | 19.3 | 0.00 | 0.00 | 0.00 | 64 | 1015.0 |
| 20260505213044 | 17 | 215 | 11.3 | 20.9 | 0.00 | 0.00 | 0.00 | 65 | 1015.1 |
| 20260505212520 | 16 | 217 | 9.7 | 20.9 | 0.00 | 0.00 | 0.00 | 65 | 1015.2 |
| 20260505212023 | 17 | 223 | 8.0 | 17.7 | 0.00 | 0.00 | 0.00 | 65 | 1015.2 |
| 20260505211539 | 17 | 252 | 8.0 | 17.7 | 0.00 | 0.00 | 0.00 | 68 | 1015.2 |
| 20260505211021 | 17 | 259 | 6.4 | 17.7 | 0.00 | 0.00 | 0.00 | 66 | 1015.3 |
| 20260505210557 | 16 | 275 | 9.7 | 19.3 | 0.00 | 0.00 | 0.00 | 67 | 1015.3 |
| 20260505210043 | 16 | 274 | 8.0 | 19.3 | 0.00 | 0.00 | 0.00 | 67 | 1015.3 |
| 20260505205525 | 16 | 229 | 6.4 | 17.7 | 0.00 | 0.00 | 0.00 | 68 | 1015.2 |
| 20260505205022 | 16 | 229 | 11.3 | 19.3 | 0.00 | 0.00 | 0.00 | 68 | 1015.2 |
| 20260505204540 | 16 | 219 | 11.3 | 19.3 | 0.00 | 0.00 | 0.00 | 67 | 1015.3 |
| 20260505204022 | 16 | 207 | 4.8 | 14.5 | 0.00 | 0.00 | 0.00 | 68 | 1015.2 |
| 20260505203520 | 16 | 165 | 6.4 | 14.5 | 0.00 | 0.00 | 0.00 | 67 | 1015.2 |
| 20260505203054 | 16 | 240 | 6.4 | 19.3 | 0.00 | 0.00 | 0.00 | 67 | 1015.2 |
| 20260505202520 | 16 | 236 | 9.7 | 19.3 | 0.00 | 0.00 | 0.00 | 67 | 1015.2 |
| 20260505202019 | 16 | 250 | 8.0 | 16.1 | 0.00 | 0.00 | 0.00 | 68 | 1015.2 |
| 20260505201542 | 16 | 227 | 4.8 | 14.5 | 0.00 | 0.00 | 0.00 | 67 | 1015.2 |
| 20260505201023 | 16 | 246 | 8.0 | 14.5 | 0.00 | 0.00 | 0.00 | 69 | 1015.3 |
| 20260505200522 | 16 | 227 | 6.4 | 16.1 | 0.00 | 0.00 | 0.00 | 68 | 1015.3 |
| 20260505200049 | 16 | 273 | 4.8 | 16.1 | 0.00 | 0.00 | 0.00 | 69 | 1015.2 |
| 20260505195524 | 16 | 233 | 6.4 | 14.5 | 0.00 | 0.00 | 0.00 | 69 | 1015.2 |
| 20260505195021 | 16 | 239 | 4.8 | 14.5 | 0.00 | 0.00 | 0.00 | 69 | 1015.2 |
| 20260505194543 | 16 | 261 | 4.8 | 16.1 | 0.00 | 0.00 | 0.00 | 68 | 1015.2 |
| 20260505194024 | 16 | 234 | 8.0 | 19.3 | 0.00 | 0.00 | 0.00 | 69 | 1015.3 |
| 20260505193522 | 16 | 263 | 8.0 | 19.3 | 0.00 | 0.00 | 0.00 | 70 | 1015.3 |
| 20260505193041 | 16 | 268 | 6.4 | 17.7 | 0.00 | 0.00 | 0.00 | 70 | 1015.3 |
| 20260505192523 | 16 | 219 | 8.0 | 14.5 | 0.00 | 0.00 | 0.00 | 68 | 1015.2 |
| 20260505192022 | 16 | 276 | 4.8 | 11.3 | 0.00 | 0.00 | 0.00 | 67 | 1015.3 |
| 20260505191547 | 16 | 274 | 1.6 | 11.3 | 0.00 | 0.00 | 0.00 | 66 | 1015.3 |
| 20260505191023 | 16 | 200 | 1.6 | 9.7 | 0.00 | 0.00 | 0.00 | 65 | 1015.3 |
| 20260505190522 | 16 | 220 | 1.6 | 9.7 | 0.00 | 0.00 | 0.00 | 65 | 1015.4 |
| 20260505190039 | 16 | 123 | 4.8 | 9.7 | 0.00 | 0.00 | 0.00 | 65 | 1015.3 |
| 20260505185521 | 16 | 0 | 3.2 | 9.7 | 0.00 | 0.00 | 0.00 | 63 | 1015.2 |
| 20260505185022 | 16 | 235 | 0.0 | 6.4 | 0.00 | 0.00 | 0.00 | 65 | 1015.2 |
| 20260505184546 | 16 | 246 | 1.6 | 8.0 | 0.00 | 0.00 | 0.00 | 64 | 1015.2 |
| 20260505184026 | 16 | 0 | 1.6 | 25.7 | 0.00 | 0.00 | 0.00 | 64 | 1015.3 |
| 20260505183522 | 16 | 129 | 3.2 | 25.7 | 0.00 | 0.00 | 0.00 | 65 | 1015.2 |
| 20260505183046 | 16 | 26 | 3.2 | 11.3 | 0.00 | 0.00 | 0.00 | 66 | 1015.2 |
| 20260505182521 | 16 | 342 | 4.8 | 14.5 | 0.00 | 0.00 | 0.00 | 66 | 1015.2 |
| 20260505182022 | 15 | 216 | 3.2 | 14.5 | 0.00 | 0.00 | 0.00 | 64 | 1015.3 |
| 20260505181546 | 16 | 252 | 1.6 | 6.4 | 0.00 | 0.00 | 0.00 | 65 | 1015.3 |
| 20260505181023 | 15 | 122 | 1.6 | 9.7 | 0.00 | 0.00 | 0.00 | 68 | 1015.3 |
| 20260505180522 | 15 | 0 | 1.6 | 9.7 | 0.00 | 0.00 | 0.00 | 69 | 1015.2 |
| 20260505180047 | 15 | 0 | 3.2 | 9.7 | 0.00 | 0.00 | 0.00 | 67 | 1015.2 |
| 20260505175521 | 15 | 119 | 1.6 | 9.7 | 0.00 | 0.00 | 0.00 | 68 | 1015.2 |
| 20260505175022 | 15 | 66 | 3.2 | 8.0 | 0.00 | 0.00 | 0.00 | 69 | 1015.1 |
| 20260505174541 | 15 | 77 | 3.2 | 8.0 | 0.00 | 0.00 | 0.00 | 69 | 1015.2 |
| 20260505174022 | 15 | 73 | 1.6 | 8.0 | 0.00 | 0.00 | 0.00 | 68 | 1015.2 |
| 20260505173521 | 15 | 17 | 1.6 | 8.0 | 0.00 | 0.00 | 0.00 | 70 | 1015.1 |
| 20260505173049 | 15 | 119 | 1.6 | 4.8 | 0.00 | 0.00 | 0.00 | 71 | 1015.1 |
| 20260505172521 | 15 | 343 | 1.6 | 12.9 | 0.00 | 0.00 | 0.00 | 69 | 1015.1 |
| 20260505172021 | 15 | 0 | 1.6 | 12.9 | 0.00 | 0.00 | 0.00 | 71 | 1015.2 |
| 20260505171547 | 14 | 279 | 4.8 | 12.9 | 0.00 | 0.00 | 0.00 | 72 | 1015.3 |
| 20260505171021 | 13 | 286 | 3.2 | 9.7 | 0.00 | 0.00 | 0.00 | 73 | 1015.3 |
| 20260505170521 | 13 | 54 | 1.6 | 9.7 | 0.00 | 0.00 | 0.00 | 73 | 1015.3 |
| 20260505170101 | 13 | 107 | 3.2 | 8.0 | 0.00 | 0.00 | 0.00 | 74 | 1015.4 |
| 20260505165520 | 13 | 207 | 1.6 | 6.4 | 0.00 | 0.00 | 0.00 | 74 | 1015.4 |
| 20260505165020 | 13 | 159 | 3.2 | 11.3 | 0.00 | 0.00 | 0.00 | 74 | 1015.4 |
| 20260505164542 | 13 | 90 | 3.2 | 11.3 | 0.00 | 0.00 | 0.00 | 75 | 1015.3 |
| 20260505164020 | 13 | 0 | 4.8 | 11.3 | 0.00 | 0.00 | 0.00 | 76 | 1015.3 |
| 20260505163519 | 13 | 76 | 1.6 | 8.0 | 0.00 | 0.00 | 0.00 | 76 | 1015.3 |
| 20260505163039 | 12 | 203 | 4.8 | 8.0 | 0.00 | 0.00 | 0.00 | 75 | 1015.2 |
| 20260505162519 | 13 | 227 | 0.0 | 8.0 | 0.00 | 0.00 | 0.00 | 77 | 1015.2 |
| 20260505162020 | 12 | 146 | 1.6 | 8.0 | 0.00 | 0.00 | 0.00 | 80 | 1015.2 |
| 20260505161543 | 12 | 0 | 1.6 | 8.0 | 0.00 | 0.00 | 0.00 | 79 | 1015.1 |
| 20260505161022 | 11 | 132 | 3.2 | 8.0 | 0.00 | 0.00 | 0.00 | 80 | 1015.1 |
| 20260505160522 | 11 | 119 | 1.6 | 8.0 | 0.00 | 0.00 | 0.00 | 81 | 1015.1 |
| 20260505153042 | 10 | 0 | 0.0 | 1.6 | 0.00 | 0.00 | 0.00 | 87 | 1015.2 |
| 20260505152519 | 10 | 0 | 0.0 | 0.0 | 0.00 | 0.00 | 0.00 | 88 | 1015.1 |
| 20260505152021 | 10 | 0 | 0.0 | 0.0 | 0.00 | 0.00 | 0.00 | 87 | 1015.1 |
| 20260505151557 | 10 | 0 | 0.0 | 1.6 | 0.00 | 0.00 | 0.00 | 88 | 1015.0 |
| 20260505151020 | 10 | 0 | 0.0 | 1.6 | 0.00 | 0.00 | 0.00 | 89 | 1014.9 |
| 20260505150523 | 10 | 0 | 0.0 | 1.6 | 0.00 | 0.00 | 0.00 | 90 | 1014.9 |
| 20260505140520 | 7 | 54 | 0.0 | 3.2 | 0.00 | 0.00 | 0.00 | 93 | 1014.7 |
| 20260505125024 | 6 | 0 | 0.0 | 1.6 | 0.00 | 0.00 | 0.00 | 91 | 1014.2 |